LAN661 SCFA-SCSE

Flight info

Callsign LAN661
Flight time N/A
Altitude 35000
Route SACON4 SACON UL300 SEBTO DCT TIMDA TIMDA5
Aircraft A319/M-SDE3FGHIRWY/LB1

Departure

Time N/A
Airport Andrés Sabella Gálvez International Airport (SCFA)

Arrival

Time 2026-04-20 18:44
Airport La Florida Airport (SCSE)
Time Latitude Longitude Altitude Speed Heading
2026-04-20 17:44 -24.02986 -70.71912 18925 ft 382 kts 207°
2026-04-20 17:45 -24.05430 -70.73091 19484 ft 384 kts 207°
2026-04-20 17:45 -24.07881 -70.74272 20040 ft 386 kts 207°
2026-04-20 17:45 -24.10347 -70.75458 20603 ft 388 kts 207°
2026-04-20 17:45 -24.12826 -70.76648 21160 ft 390 kts 207°
2026-04-20 17:46 -24.15317 -70.77844 21706 ft 392 kts 207°
2026-04-20 17:46 -24.17822 -70.79048 22244 ft 394 kts 207°
2026-04-20 17:46 -24.20335 -70.80256 22778 ft 396 kts 207°
2026-04-20 17:46 -24.22864 -70.81474 23299 ft 398 kts 208°
2026-04-20 17:47 -24.25404 -70.82700 23789 ft 400 kts 208°
2026-04-20 17:47 -24.27957 -70.83931 24186 ft 402 kts 208°
2026-04-20 17:47 -24.30526 -70.85173 24585 ft 405 kts 208°
2026-04-20 17:47 -24.33105 -70.86421 24977 ft 407 kts 208°
2026-04-20 17:48 -24.35707 -70.87679 25362 ft 409 kts 208°
2026-04-20 17:48 -24.38382 -70.88704 25734 ft 417 kts 199°
2026-04-20 17:48 -24.41282 -70.89219 26123 ft 426 kts 190°
2026-04-20 17:48 -24.44243 -70.89485 26502 ft 428 kts 190°
2026-04-20 17:49 -24.47218 -70.89757 26858 ft 431 kts 190°
2026-04-20 17:49 -24.50218 -70.90035 27203 ft 433 kts 191°
2026-04-20 17:49 -24.53230 -70.90319 27545 ft 436 kts 191°
2026-04-20 17:49 -24.56260 -70.90613 27889 ft 438 kts 191°
2026-04-20 17:50 -24.59305 -70.90909 28226 ft 441 kts 191°
2026-04-20 17:50 -24.62374 -70.91204 28558 ft 444 kts 191°
2026-04-20 17:50 -24.65461 -70.91497 28895 ft 447 kts 191°
2026-04-20 17:50 -24.68570 -70.91791 29230 ft 449 kts 192°
2026-04-20 17:51 -24.71692 -70.92084 29581 ft 451 kts 192°
2026-04-20 17:51 -24.74831 -70.92379 29920 ft 454 kts 192°
2026-04-20 17:51 -24.77986 -70.92679 30233 ft 456 kts 192°
2026-04-20 17:51 -24.81156 -70.92978 30493 ft 458 kts 192°
2026-04-20 17:52 -24.84340 -70.93277 30748 ft 461 kts 192°
2026-04-20 17:52 -24.87550 -70.93577 30999 ft 463 kts 192°
2026-04-20 17:52 -24.90766 -70.93879 31245 ft 466 kts 192°
2026-04-20 17:52 -24.94006 -70.94185 31486 ft 468 kts 192°
2026-04-20 17:53 -24.97221 -70.94492 31731 ft 470 kts 193°
2026-04-20 17:53 -25.00480 -70.94804 32099 ft 470 kts 193°
2026-04-20 17:53 -25.03735 -70.95112 32443 ft 470 kts 193°
2026-04-20 17:53 -25.06996 -70.95419 32782 ft 470 kts 193°
2026-04-20 17:54 -25.10252 -70.95725 33132 ft 470 kts 193°
2026-04-20 17:54 -25.13516 -70.96038 33479 ft 470 kts 193°
2026-04-20 17:54 -25.16772 -70.96353 33833 ft 470 kts 194°
2026-04-20 17:54 -25.20037 -70.96665 34178 ft 471 kts 194°
2026-04-20 17:55 -25.23297 -70.96973 34498 ft 470 kts 194°
2026-04-20 17:55 -25.26553 -70.97278 34850 ft 469 kts 194°
2026-04-20 17:55 -25.29803 -70.97580 35072 ft 468 kts 194°
2026-04-20 17:56 -25.36230 -70.98184 35130 ft 459 kts 194°
2026-04-20 17:56 -25.42542 -70.98800 35132 ft 458 kts 194°
2026-04-20 17:57 -25.48887 -70.99404 35137 ft 458 kts 194°
2026-04-20 17:57 -25.55229 -71.00008 35137 ft 457 kts 194°
2026-04-20 17:58 -25.61575 -71.00617 35163 ft 457 kts 195°
2026-04-20 17:58 -25.67919 -71.01228 35154 ft 457 kts 195°
2026-04-20 17:59 -25.74260 -71.01829 35145 ft 457 kts 195°
2026-04-20 17:59 -25.80596 -71.02438 35140 ft 457 kts 195°
2026-04-20 18:00 -25.86934 -71.03049 35140 ft 457 kts 195°
2026-04-20 18:00 -25.93270 -71.03668 35164 ft 457 kts 195°
2026-04-20 18:01 -25.99614 -71.04279 35158 ft 457 kts 195°
2026-04-20 18:01 -26.05951 -71.04894 35154 ft 457 kts 195°
2026-04-20 18:02 -26.12248 -71.05497 35151 ft 457 kts 195°
2026-04-20 18:02 -26.18579 -71.06101 35147 ft 457 kts 195°
2026-04-20 18:03 -26.24920 -71.06709 35163 ft 456 kts 195°
2026-04-20 18:03 -26.31247 -71.07325 35161 ft 456 kts 195°
2026-04-20 18:04 -26.37560 -71.07941 35159 ft 455 kts 195°
2026-04-20 18:04 -26.43867 -71.08558 35153 ft 455 kts 195°
2026-04-20 18:05 -26.53280 -71.09479 35171 ft 454 kts 195°
2026-04-20 18:05 -26.59570 -71.10097 35162 ft 453 kts 195°
2026-04-20 18:06 -26.65851 -71.10710 35151 ft 453 kts 195°
2026-04-20 18:06 -26.72139 -71.11326 35144 ft 453 kts 195°
2026-04-20 18:07 -26.78415 -71.11942 35157 ft 453 kts 195°
2026-04-20 18:07 -26.84689 -71.12553 35161 ft 452 kts 195°
2026-04-20 18:08 -26.90954 -71.13170 35164 ft 451 kts 195°
2026-04-20 18:08 -26.97208 -71.13782 35152 ft 451 kts 195°
2026-04-20 18:09 -27.03418 -71.14395 35145 ft 450 kts 195°
2026-04-20 18:09 -27.09669 -71.15018 35140 ft 450 kts 195°
2026-04-20 18:10 -27.15921 -71.15636 35137 ft 451 kts 195°
2026-04-20 18:10 -27.22170 -71.16256 35136 ft 451 kts 195°
2026-04-20 18:11 -27.28425 -71.16875 35137 ft 451 kts 195°
2026-04-20 18:11 -27.34677 -71.17500 35138 ft 451 kts 195°
2026-04-20 18:12 -27.40926 -71.18114 35165 ft 450 kts 195°
2026-04-20 18:12 -27.47163 -71.18729 35157 ft 450 kts 195°
2026-04-20 18:13 -27.53349 -71.19350 35148 ft 449 kts 195°
2026-04-20 18:13 -27.59566 -71.19977 35141 ft 449 kts 195°
2026-04-20 18:14 -27.65784 -71.20591 35166 ft 448 kts 196°
2026-04-20 18:14 -27.72002 -71.21212 35156 ft 448 kts 196°
2026-04-20 18:15 -27.78207 -71.21836 35145 ft 448 kts 196°
2026-04-20 18:15 -27.84413 -71.22455 35135 ft 448 kts 196°
2026-04-20 18:16 -27.90624 -71.23071 35134 ft 448 kts 196°
2026-04-20 18:16 -27.96832 -71.23690 35158 ft 448 kts 196°
2026-04-20 18:17 -28.03041 -71.24319 35154 ft 447 kts 196°
2026-04-20 18:17 -28.09238 -71.24950 35154 ft 447 kts 196°
2026-04-20 18:18 -28.15434 -71.25572 35150 ft 447 kts 196°
2026-04-20 18:18 -28.21630 -71.26192 35149 ft 447 kts 196°
2026-04-20 18:19 -28.27828 -71.26814 35170 ft 446 kts 196°
2026-04-20 18:19 -28.34012 -71.27438 35161 ft 446 kts 196°
2026-04-20 18:20 -28.40196 -71.28061 35081 ft 446 kts 196°
2026-04-20 18:20 -28.43252 -71.28371 34546 ft 448 kts 197°
2026-04-20 18:20 -28.46352 -71.28685 34090 ft 447 kts 197°
2026-04-20 18:21 -28.49444 -71.28997 33572 ft 445 kts 196°
2026-04-20 18:21 -28.52516 -71.29307 33124 ft 442 kts 196°
2026-04-20 18:21 -28.55563 -71.29613 32668 ft 438 kts 196°
2026-04-20 18:21 -28.58589 -71.29916 32193 ft 435 kts 196°
2026-04-20 18:22 -28.61596 -71.30221 31754 ft 432 kts 196°
2026-04-20 18:22 -28.64576 -71.30524 31320 ft 428 kts 195°
2026-04-20 18:22 -28.67532 -71.30823 30888 ft 425 kts 195°
2026-04-20 18:22 -28.70466 -71.31121 30461 ft 422 kts 195°
2026-04-20 18:23 -28.73379 -71.31421 30025 ft 419 kts 195°
2026-04-20 18:23 -28.76273 -71.31717 29613 ft 415 kts 195°
2026-04-20 18:23 -28.79132 -71.32006 29256 ft 410 kts 195°
2026-04-20 18:23 -28.81965 -71.32295 28836 ft 407 kts 195°
2026-04-20 18:24 -28.84771 -71.32581 28480 ft 402 kts 195°
2026-04-20 18:24 -28.87552 -71.32867 28092 ft 399 kts 195°
2026-04-20 18:24 -28.90311 -71.33152 27722 ft 396 kts 195°
2026-04-20 18:24 -28.93050 -71.33434 27350 ft 393 kts 195°
2026-04-20 18:25 -28.95765 -71.33710 26975 ft 391 kts 194°
2026-04-20 18:25 -28.98426 -71.33982 26606 ft 388 kts 194°
2026-04-20 18:25 -29.01108 -71.34256 26228 ft 386 kts 194°
2026-04-20 18:25 -29.03772 -71.34527 25842 ft 383 kts 194°
2026-04-20 18:26 -29.06421 -71.34796 25453 ft 381 kts 194°
2026-04-20 18:26 -29.09054 -71.35066 25080 ft 379 kts 194°
2026-04-20 18:26 -29.11675 -71.35338 24675 ft 377 kts 194°
2026-04-20 18:26 -29.14284 -71.35610 24277 ft 376 kts 194°
2026-04-20 18:27 -29.16883 -71.35881 23876 ft 374 kts 194°
2026-04-20 18:27 -29.19469 -71.36150 23448 ft 372 kts 194°
2026-04-20 18:27 -29.22035 -71.36409 23040 ft 368 kts 193°
2026-04-20 18:27 -29.24572 -71.36662 22649 ft 364 kts 193°
2026-04-20 18:28 -29.27082 -71.36915 22260 ft 361 kts 193°
2026-04-20 18:28 -29.29571 -71.37169 21870 ft 357 kts 193°
2026-04-20 18:28 -29.32039 -71.37422 21482 ft 354 kts 193°
2026-04-20 18:28 -29.34483 -71.37674 21101 ft 352 kts 193°
2026-04-20 18:29 -29.36090 -71.37841 20866 ft 350 kts 193°
2026-04-20 18:29 -29.38513 -71.38094 20474 ft 348 kts 193°
2026-04-20 18:29 -29.40922 -71.38345 20096 ft 346 kts 193°
2026-04-20 18:29 -29.43321 -71.38595 19717 ft 345 kts 193°
2026-04-20 18:30 -29.45705 -71.38840 19341 ft 343 kts 193°
2026-04-20 18:30 -29.48854 -71.39168 18842 ft 342 kts 192°
2026-04-20 18:30 -29.51218 -71.39415 18468 ft 341 kts 192°
2026-04-20 18:30 -29.53578 -71.39661 18055 ft 340 kts 192°
2026-04-20 18:31 -29.55172 -71.39762 17802 ft 341 kts 185°
2026-04-20 18:31 -29.57546 -71.39462 17422 ft 346 kts 172°
2026-04-20 18:31 -29.59852 -71.38632 17032 ft 348 kts 164°
2026-04-20 18:31 -29.62091 -71.37697 16657 ft 346 kts 164°
2026-04-20 18:32 -29.64355 -71.36761 16282 ft 345 kts 164°
2026-04-20 18:32 -29.66617 -71.35829 15899 ft 344 kts 163°
2026-04-20 18:32 -29.68836 -71.34790 15522 ft 345 kts 154°
2026-04-20 18:32 -29.70823 -71.33245 15151 ft 346 kts 139°
2026-04-20 18:33 -29.72456 -71.31225 14781 ft 345 kts 125°
2026-04-20 18:33 -29.73705 -71.28880 14412 ft 342 kts 118°
2026-04-20 18:33 -29.74883 -71.26509 14051 ft 341 kts 118°
2026-04-20 18:33 -29.76062 -71.24148 13652 ft 339 kts 118°
2026-04-20 18:34 -29.77236 -71.21802 13287 ft 337 kts 118°
2026-04-20 18:34 -29.78402 -71.19472 12932 ft 335 kts 118°
2026-04-20 18:34 -29.79563 -71.17154 12572 ft 333 kts 118°
2026-04-20 18:34 -29.80718 -71.14853 12206 ft 331 kts 117°
2026-04-20 18:35 -29.81862 -71.12564 11849 ft 329 kts 117°
2026-04-20 18:35 -29.82996 -71.10283 11498 ft 327 kts 117°
2026-04-20 18:35 -29.84104 -71.08050 11151 ft 325 kts 117°
2026-04-20 18:35 -29.85238 -71.05770 10791 ft 323 kts 117°
2026-04-20 18:36 -29.86341 -71.03555 10441 ft 322 kts 117°
2026-04-20 18:36 -29.87454 -71.01320 10087 ft 321 kts 117°
2026-04-20 18:36 -29.88560 -70.99096 9783 ft 317 kts 116°
2026-04-20 18:36 -29.89644 -70.96909 9407 ft 313 kts 117°
2026-04-20 18:37 -29.90721 -70.94740 8998 ft 310 kts 117°
2026-04-20 18:37 -29.91793 -70.92575 8498 ft 309 kts 117°
2026-04-20 18:37 -29.92855 -70.90443 8113 ft 304 kts 120°
2026-04-20 18:37 -29.94286 -70.88712 7744 ft 297 kts 149°
2026-04-20 18:38 -29.96210 -70.88033 7374 ft 287 kts 180°
2026-04-20 18:38 -29.98101 -70.88508 7016 ft 275 kts 207°
2026-04-20 18:38 -29.99817 -70.89467 6649 ft 273 kts 208°
2026-04-20 18:38 -30.01497 -70.90445 6281 ft 267 kts 213°
2026-04-20 18:39 -30.02711 -70.91966 5931 ft 255 kts 249°
2026-04-20 18:39 -30.02875 -70.93917 5591 ft 243 kts 285°
2026-04-20 18:39 -30.02270 -70.95693 5280 ft 234 kts 296°
2026-04-20 18:39 -30.01537 -70.97343 4973 ft 228 kts 298°
2026-04-20 18:40 -30.00790 -70.98943 4671 ft 225 kts 297°
2026-04-20 18:40 -30.00067 -71.00507 4380 ft 222 kts 297°
2026-04-20 18:40 -29.99357 -71.02078 4099 ft 220 kts 296°
2026-04-20 18:40 -29.98666 -71.03639 3778 ft 218 kts 296°
2026-04-20 18:41 -29.97982 -71.05213 3444 ft 220 kts 295°
2026-04-20 18:41 -29.97300 -71.06787 3105 ft 218 kts 295°
2026-04-20 18:41 -29.96628 -71.08339 2777 ft 214 kts 296°
2026-04-20 18:41 -29.95970 -71.09860 2454 ft 209 kts 296°
2026-04-20 18:42 -29.95332 -71.11338 2137 ft 203 kts 295°
2026-04-20 18:42 -29.94720 -71.12757 1858 ft 193 kts 296°
2026-04-20 18:42 -29.94140 -71.14104 1558 ft 181 kts 296°
2026-04-20 18:42 -29.93602 -71.15357 1295 ft 168 kts 296°
2026-04-20 18:43 -29.93105 -71.16518 1073 ft 153 kts 295°
2026-04-20 18:43 -29.92663 -71.17559 822 ft 137 kts 295°
2026-04-20 18:43 -29.92265 -71.18508 607 ft 126 kts 294°
2026-04-20 18:43 -29.91881 -71.19408 482 ft 123 kts 296°
2026-04-20 18:44 -29.91597 -71.20071 476 ft 51 kts 297°
2026-04-20 18:44 -29.91533 -71.20256 477 ft 12 kts 243°
2026-04-20 18:44 -29.91578 -71.20290 475 ft 5 kts 205°
2026-04-20 18:44 -29.91594 -71.20299 476 ft 0 kts 205°
2026-04-20 18:45 -29.91599 -71.20301 477 ft 1 kts 205°
2026-04-20 18:45 -29.91615 -71.20300 473 ft 3 kts 160°
2026-04-20 18:45 -29.91634 -71.20273 477 ft 6 kts 124°
2026-04-20 18:46 -29.91660 -71.20234 474 ft 6 kts 156°
2026-04-20 18:46 -29.91696 -71.20249 480 ft 4 kts 207°
2026-04-20 18:46 -29.91706 -71.20255 480 ft 0 kts 207°